| time (UTC) | temp F | wind direction | speed MPH | gust MPH | rain 1hr in | rain 24hr in | rain mn in | humidity % | barometer mb |
| 20260505234534 | 74 | 351 | 7.0 | 11.0 | 0.00 | 0.00 | 0.00 | 53 | 1014.2 |
| 20260505233032 | 74 | 349 | 7.0 | 11.0 | 0.00 | 0.00 | 0.00 | 52 | 1014.3 |
| 20260505231531 | 73 | 354 | 7.0 | 11.0 | 0.00 | 0.00 | 0.00 | 52 | 1014.3 |
| 20260505230108 | 74 | 8 | 7.0 | 11.0 | 0.00 | 0.00 | 0.00 | 52 | 1014.3 |
| 20260505224607 | 74 | 348 | 5.0 | 8.0 | 0.00 | 0.00 | 0.00 | 51 | 1014.5 |
| 20260505214535 | 74 | 345 | 5.0 | 11.0 | 0.00 | 0.00 | 0.00 | 51 | 1014.8 |
| 20260505211531 | 73 | 338 | 5.0 | 11.0 | 0.00 | 0.00 | 0.00 | 52 | 1014.9 |
| 20260505204536 | 73 | 341 | 4.0 | 9.0 | 0.00 | 0.00 | 0.00 | 51 | 1015.2 |
| 20260505201532 | 72 | 330 | 5.0 | 9.0 | 0.00 | 0.00 | 0.00 | 53 | 1015.2 |
| 20260505194530 | 71 | 355 | 5.0 | 10.0 | 0.00 | 0.00 | 0.00 | 54 | 1015.3 |
| 20260505193032 | 70 | 347 | 5.0 | 12.0 | 0.00 | 0.00 | 0.00 | 54 | 1015.4 |
| 20260505191531 | 70 | 330 | 4.0 | 8.0 | 0.00 | 0.00 | 0.00 | 55 | 1015.5 |
| 20260505190035 | 70 | 355 | 5.0 | 9.0 | 0.00 | 0.00 | 0.00 | 55 | 1015.6 |
| 20260505184534 | 68 | 20 | 4.0 | 9.0 | 0.00 | 0.00 | 0.00 | 57 | 1015.6 |
| 20260505181530 | 67 | 14 | 5.0 | 11.0 | 0.00 | 0.00 | 0.00 | 58 | 1015.6 |
| 20260505180035 | 66 | 7 | 6.0 | 11.0 | 0.00 | 0.00 | 0.00 | 59 | 1015.6 |
| 20260505174532 | 66 | 8 | 6.0 | 11.0 | 0.00 | 0.00 | 0.00 | 59 | 1015.5 |
| 20260505173029 | 65 | 18 | 5.0 | 9.0 | 0.00 | 0.00 | 0.00 | 61 | 1015.4 |
| 20260505170033 | 65 | 342 | 6.0 | 9.0 | 0.00 | 0.00 | 0.00 | 62 | 1015.4 |
| 20260505164535 | 63 | 341 | 6.0 | 10.0 | 0.00 | 0.00 | 0.00 | 64 | 1015.3 |
| 20260505161605 | 62 | 354 | 5.0 | 9.0 | 0.00 | 0.00 | 0.00 | 65 | 1015.3 |
| 20260505153030 | 60 | 340 | 3.0 | 5.0 | 0.00 | 0.00 | 0.00 | 68 | 1015.2 |
| 20260505151533 | 60 | 342 | 3.0 | 5.0 | 0.00 | 0.00 | 0.00 | 69 | 1015.1 |
| 20260505124531 | 49 | 138 | 5.0 | 8.0 | 0.00 | 0.00 | 0.00 | 81 | 1014.2 |
| 20260505123031 | 49 | 140 | 4.0 | 6.0 | 0.00 | 0.00 | 0.00 | 81 | 1014.1 |
| 20260505121534 | 49 | 142 | 4.0 | 7.0 | 0.00 | 0.00 | 0.00 | 81 | 1014.1 |
| 20260505120134 | 50 | 137 | 4.0 | 6.0 | 0.00 | 0.00 | 0.00 | 80 | 1014.2 |
| 20260505113032 | 50 | 135 | 4.0 | 6.0 | 0.00 | 0.00 | 0.00 | 80 | 1014.1 |
| 20260505111607 | 50 | 135 | 4.0 | 7.0 | 0.00 | 0.00 | 0.00 | 80 | 1014.0 |
| 20260505101531 | 51 | 106 | 3.0 | 4.0 | 0.00 | 0.00 | 0.00 | 77 | 1013.8 |
| 20260505100107 | 51 | 91 | 4.0 | 6.0 | 0.00 | 0.00 | 0.00 | 76 | 1013.6 |
| 20260505094535 | 52 | 80 | 3.0 | 6.0 | 0.00 | 0.00 | 0.00 | 74 | 1013.6 |
| 20260505093037 | 53 | 136 | 5.0 | 8.0 | 0.00 | 0.00 | 0.00 | 73 | 1013.5 |
| 20260505091634 | 53 | 139 | 6.0 | 9.0 | 0.00 | 0.00 | 0.00 | 72 | 1013.4 |
| 20260505084532 | 54 | 144 | 6.0 | 10.0 | 0.00 | 0.00 | 0.00 | 72 | 1013.3 |
| 20260505083033 | 54 | 138 | 6.0 | 9.0 | 0.00 | 0.00 | 0.00 | 71 | 1013.4 |
| 20260505081535 | 54 | 136 | 6.0 | 10.0 | 0.00 | 0.00 | 0.00 | 71 | 1013.3 |
| 20260505080031 | 54 | 135 | 5.0 | 9.0 | 0.00 | 0.00 | 0.00 | 71 | 1013.4 |
| 20260505074530 | 54 | 135 | 5.0 | 7.0 | 0.00 | 0.00 | 0.00 | 71 | 1013.4 |
| 20260505073031 | 55 | 139 | 5.0 | 9.0 | 0.00 | 0.00 | 0.00 | 71 | 1013.3 |
| 20260505071530 | 56 | 144 | 5.0 | 8.0 | 0.00 | 0.00 | 0.00 | 73 | 1013.2 |
| 20260505070031 | 56 | 98 | 1.0 | 4.0 | 0.00 | 0.00 | 0.00 | 75 | 1013.1 |
| 20260505064605 | 55 | 118 | 1.0 | 5.0 | 0.00 | 0.00 | 0.00 | 75 | 1013.2 |
| 20260505063029 | 55 | 106 | 2.0 | 4.0 | 0.00 | 0.00 | 0.00 | 73 | 1013.2 |
| 20260505061536 | 55 | 115 | 2.0 | 4.0 | 0.00 | 0.00 | 0.00 | 71 | 1013.2 |
| 20260505060107 | 57 | 105 | 1.0 | 4.0 | 0.00 | 0.00 | 0.00 | 68 | 1013.2 |
| 20260505054531 | 58 | 247 | 1.0 | 6.0 | 0.00 | 0.00 | 0.00 | 67 | 1013.2 |
| 20260505053037 | 59 | 252 | 2.0 | 9.0 | 0.00 | 0.00 | 0.00 | 66 | 1013.1 |
| 20260505051605 | 58 | 241 | 3.0 | 11.0 | 0.00 | 0.00 | 0.00 | 65 | 1013.1 |
| 20260505041531 | 58 | 202 | 2.0 | 6.0 | 0.00 | 0.00 | 0.00 | 56 | 1012.7 |
| 20260505040107 | 60 | 213 | 1.0 | 4.0 | 0.00 | 0.00 | 0.00 | 54 | 1012.5 |
| 20260505034528 | 61 | 231 | 3.0 | 9.0 | 0.00 | 0.00 | 0.00 | 51 | 1012.3 |
| 20260505033030 | 62 | 223 | 1.0 | 6.0 | 0.00 | 0.00 | 0.00 | 49 | 1012.1 |
| 20260505031533 | 64 | 219 | 3.0 | 10.0 | 0.00 | 0.00 | 0.00 | 46 | 1011.9 |
| 20260505030034 | 65 | 213 | 3.0 | 11.0 | 0.00 | 0.00 | 0.00 | 45 | 1011.7 |
| 20260505023031 | 69 | 232 | 3.0 | 10.0 | 0.00 | 0.00 | 0.00 | 41 | 1011.5 |
| 20260505021605 | 69 | 295 | 3.0 | 8.0 | 0.00 | 0.00 | 0.00 | 40 | 1011.4 |
| 20260505020035 | 71 | 291 | 3.0 | 10.0 | 0.00 | 0.00 | 0.00 | 38 | 1011.3 |
| 20260505014532 | 72 | 258 | 5.0 | 13.0 | 0.00 | 0.00 | 0.00 | 36 | 1011.3 |
| 20260505013034 | 73 | 271 | 4.0 | 13.0 | 0.00 | 0.00 | 0.00 | 35 | 1011.4 |
| 20260505011536 | 73 | 245 | 4.0 | 13.0 | 0.00 | 0.00 | 0.00 | 34 | 1011.3 |
| 20260505010033 | 74 | 237 | 6.0 | 19.0 | 0.00 | 0.00 | 0.00 | 33 | 1011.3 |
| 20260505004529 | 75 | 237 | 6.0 | 21.0 | 0.00 | 0.00 | 0.00 | 33 | 1011.4 |
| 20260505003031 | 76 | 234 | 7.0 | 18.0 | 0.00 | 0.00 | 0.00 | 33 | 1011.3 |
| 20260505001528 | 76 | 234 | 9.0 | 18.0 | 0.00 | 0.00 | 0.00 | 33 | 1011.2 |
| 20260505000038 | 77 | 230 | 8.0 | 17.0 | 0.00 | 0.00 | 0.00 | 33 | 1011.3 |